Weather History for Le Mars, IA

Change the Weather History Date:

Tuesday, October 9, 2012

  Actual Average Record
Temperature  
Mean Temperature 40 °F -  
Max Temperature 51 °F 63 °F 86 °F (1980)
Min Temperature 28 °F 40 °F 19 °F (2000)
Degree Days  
Heating Degree Days 26    
Moisture  
Dew Point 35 °F    
Average Humidity 71    
Maximum Humidity 100    
Minimum Humidity 35    
Precipitation  
Precipitation 0.05 in - - ()
Sea Level Pressure  
Sea Level Pressure 29.94 in    
Wind  
Wind Speed 7 mph (NW)    
Max Wind Speed 25 mph    
Max Gust Speed 34 mph    
Visibility 10 miles    
Events Rain    
Averages and records for this station are not official NWS values.
T = Trace of Precipitation, MM = Missing Value Source: NWS Daily Summary

Daily Weather History Graph

Daily Weather History Graph

Search for Another Location

Airport:

Trip Planner

Search our weather history database for the weather conditions in past years. The results will help you decide how hot, cold, wet, or windy it might be!

Date:

Astronomy

Oct. 09, 2012 Rise Set
Actual Time 7:31 AM CDT 6:51 PM CDT
Civil Twilight 7:03 AM CDT 7:19 PM CDT
Nautical Twilight 6:30 AM CDT 7:52 PM CDT
Astronomical Twilight 5:57 AM CDT 8:25 PM CDT
Moon 1:01 AM CDT (10/9) 3:26 PM CDT (10/9)
Length of Visible Light 12h 16m
Length of Day
11h 19m
Last Quarter, 36% of the Moon is Illuminated
Oct 9
Last Quarter
Oct 15
New
Oct 21
First Quarter
Oct 29
Full
Nov 6
Last Quarter

Hourly Weather History & Observations

Time (CDT) Temp. Windchill Dew Point Humidity Pressure Visibility Wind Dir Wind Speed Gust Speed Precip Events Conditions
12:15 AM 50.0 °F - 48.2 °F 94% 29.81 in 10.0 mi SW 4.6 mph - 0.01 in Rain Rain
12:35 AM 50.0 °F - 48.2 °F 94% 29.81 in 10.0 mi Calm Calm - 0.01 in Rain Light Rain
12:55 AM 48.2 °F - 48.2 °F 100% 29.82 in 10.0 mi Calm Calm - 0.01 in   Mostly Cloudy
1:15 AM 50.0 °F - 48.2 °F 94% 29.82 in 10.0 mi SSW 3.5 mph - N/A   Scattered Clouds
1:35 AM 48.2 °F - 46.4 °F 93% 29.81 in 10.0 mi Calm Calm - N/A   Scattered Clouds
1:55 AM 48.2 °F - 46.4 °F 93% 29.81 in 10.0 mi Calm Calm - N/A   Scattered Clouds
2:15 AM 48.2 °F - 46.4 °F 93% 29.81 in 10.0 mi South 3.5 mph - N/A   Clear
3:15 AM 46.4 °F 45.2 °F 44.6 °F 93% 29.81 in 10.0 mi SW 3.5 mph - N/A   Mostly Cloudy
3:35 AM 46.4 °F 45.2 °F 46.4 °F 100% 29.81 in 10.0 mi SSW 3.5 mph - N/A   Overcast
3:55 AM 48.2 °F - 46.4 °F 93% 29.81 in 10.0 mi Calm Calm - N/A   Overcast
4:15 AM 48.2 °F - 46.4 °F 93% 29.81 in 10.0 mi Calm Calm - N/A   Overcast
4:35 AM 48.2 °F - 44.6 °F 87% 29.82 in 10.0 mi Calm Calm - N/A   Overcast
4:55 AM 50.0 °F - 44.6 °F 82% 29.81 in 10.0 mi Calm Calm - N/A   Overcast
5:15 AM 48.2 °F - 44.6 °F 87% 29.82 in 10.0 mi WNW 6.9 mph - N/A   Overcast
5:35 AM 48.2 °F - 44.6 °F 87% 29.84 in 10.0 mi West 8.1 mph - N/A   Drizzle
5:55 AM 48.2 °F - 44.6 °F 87% 29.85 in 10.0 mi West 6.9 mph - 0.02 in Rain Light Rain
6:15 AM 48.2 °F - 44.6 °F 87% 29.85 in 10.0 mi WNW 5.8 mph - 0.01 in Rain Rain
6:35 AM 48.2 °F - 44.6 °F 87% 29.83 in 10.0 mi NW 8.1 mph - 0.01 in Rain Rain
6:55 AM 48.2 °F - 44.6 °F 87% 29.85 in 10.0 mi NW 8.1 mph - 0.01 in   Drizzle
7:15 AM 48.2 °F - 44.6 °F 87% 29.86 in 10.0 mi NW 10.4 mph - N/A Rain Rain
7:35 AM 46.4 °F 41.9 °F 44.6 °F 93% 29.86 in 10.0 mi NW 9.2 mph - N/A   Light Drizzle
7:55 AM 46.4 °F 41.5 °F 44.6 °F 93% 29.87 in 10.0 mi NW 10.4 mph - 0.01 in Rain Light Rain
8:15 AM 46.4 °F 42.9 °F 44.6 °F 93% 29.88 in 10.0 mi NW 6.9 mph - N/A Rain Rain
8:35 AM 46.4 °F 41.5 °F 42.8 °F 87% 29.90 in 10.0 mi NW 10.4 mph 16.1 mph N/A   Light Drizzle
8:55 AM 46.4 °F 40.7 °F 41.0 °F 81% 29.91 in 10.0 mi NNW 12.7 mph 16.1 mph N/A   Light Drizzle
9:15 AM 44.6 °F 37.8 °F 39.2 °F 81% 29.92 in 10.0 mi NW 15.0 mph 20.7 mph N/A   Light Drizzle
9:35 AM 44.6 °F 38.4 °F 37.4 °F 76% 29.93 in 10.0 mi NNW 12.7 mph 21.9 mph N/A Rain Light Rain
9:55 AM 44.6 °F 40.7 °F 37.4 °F 76% 29.93 in 10.0 mi NW 6.9 mph - N/A Rain Light Rain
10:15 AM 44.6 °F 40.2 °F 37.4 °F 76% 29.94 in 10.0 mi WNW 8.1 mph - N/A   Clear
10:35 AM 46.4 °F 42.4 °F 37.4 °F 71% 29.94 in 10.0 mi WNW 8.1 mph - N/A   Clear
10:55 AM 46.4 °F 42.4 °F 39.2 °F 76% 29.94 in 10.0 mi NW 8.1 mph - N/A   Clear
11:15 AM 46.4 °F 42.9 °F 39.2 °F 76% 29.94 in 10.0 mi WNW 6.9 mph - N/A   Scattered Clouds
11:35 AM 46.4 °F 40.1 °F 35.6 °F 66% 29.95 in 10.0 mi NW 15.0 mph 26.5 mph N/A   Scattered Clouds
11:55 AM 44.6 °F 38.1 °F 32.0 °F 61% 29.96 in 10.0 mi NNW 13.8 mph 20.7 mph N/A   Clear
12:15 PM 44.6 °F 37.2 °F 28.4 °F 53% 29.96 in 10.0 mi NW 17.3 mph 24.2 mph N/A   Clear
12:35 PM 46.4 °F 39.5 °F 28.4 °F 50% 29.95 in 10.0 mi NW 17.3 mph 24.2 mph N/A   Clear
12:55 PM 46.4 °F 39.2 °F 28.4 °F 50% 29.95 in 10.0 mi NW 18.4 mph 25.3 mph N/A   Clear
1:15 PM 46.4 °F 39.0 °F 28.4 °F 50% 29.95 in 10.0 mi NW 19.6 mph 27.6 mph N/A   Clear
1:35 PM 48.2 °F - 28.4 °F 46% 29.94 in 10.0 mi NW 10.4 mph 24.2 mph N/A   Clear
1:55 PM 50.0 °F - 28.4 °F 43% 29.94 in 10.0 mi WNW 18.4 mph 26.5 mph N/A   Clear
2:15 PM 51.8 °F - 26.6 °F 38% 29.94 in 10.0 mi NW 23.0 mph 29.9 mph N/A   Clear
2:35 PM 51.8 °F - 26.6 °F 38% 29.93 in 10.0 mi NW 24.2 mph 29.9 mph N/A   Clear
2:55 PM 51.8 °F - 24.8 °F 35% 29.93 in 10.0 mi NW 23.0 mph 33.4 mph N/A   Clear
3:15 PM 51.8 °F - 26.6 °F 38% 29.94 in 10.0 mi NW 23.0 mph 34.5 mph N/A   Clear
3:35 PM 51.8 °F - 26.6 °F 38% 29.95 in 10.0 mi NW 25.3 mph 34.5 mph N/A   Clear
3:55 PM 50.0 °F - 26.6 °F 40% 29.96 in 10.0 mi NW 24.2 mph 28.8 mph N/A   Clear
4:15 PM 51.8 °F - 26.6 °F 38% 29.97 in 10.0 mi NW 21.9 mph 31.1 mph N/A   Clear
4:35 PM 50.0 °F - 26.6 °F 40% 29.98 in 10.0 mi NNW 18.4 mph 26.5 mph N/A   Clear
4:55 PM 50.0 °F - 28.4 °F 43% 29.99 in 10.0 mi NNW 15.0 mph 31.1 mph N/A   Scattered Clouds
5:15 PM 48.2 °F - 26.6 °F 43% 30.00 in 10.0 mi NNW 16.1 mph 26.5 mph N/A   Scattered Clouds
5:35 PM 48.2 °F - 26.6 °F 43% 30.00 in 10.0 mi NNW 18.4 mph 25.3 mph N/A   Mostly Cloudy
5:55 PM 46.4 °F 39.8 °F 28.4 °F 50% 30.02 in 10.0 mi NNW 16.1 mph 26.5 mph N/A   Overcast
6:15 PM 46.4 °F 40.7 °F 26.6 °F 46% 30.02 in 10.0 mi North 12.7 mph - N/A   Overcast
6:35 PM 46.4 °F 41.1 °F 26.6 °F 46% 30.03 in 10.0 mi North 11.5 mph - N/A   Overcast
6:55 PM 44.6 °F 39.2 °F 26.6 °F 49% 30.04 in 10.0 mi NNW 10.4 mph 16.1 mph N/A   Scattered Clouds
7:15 PM 42.8 °F 38.0 °F 26.6 °F 53% 30.05 in 10.0 mi NNW 8.1 mph - N/A   Clear
7:35 PM 41.0 °F 37.1 °F 26.6 °F 57% 30.06 in 10.0 mi NNW 5.8 mph - N/A   Scattered Clouds
7:55 PM 39.2 °F 37.0 °F 26.6 °F 61% 30.06 in 10.0 mi NNW 3.5 mph - N/A   Scattered Clouds
8:15 PM 37.4 °F - 26.6 °F 65% 30.06 in 10.0 mi Calm Calm - N/A   Scattered Clouds
8:35 PM 33.8 °F 28.6 °F 26.6 °F 75% 30.07 in 10.0 mi West 5.8 mph - N/A   Clear
8:55 PM 33.8 °F 30.8 °F 26.6 °F 75% 30.07 in 10.0 mi WNW 3.5 mph - N/A   Clear
9:15 PM 30.2 °F - 24.8 °F 80% 30.08 in 10.0 mi Calm Calm - N/A   Clear
9:35 PM 33.8 °F - 24.8 °F 70% 30.09 in 10.0 mi Calm Calm - N/A   Clear
9:55 PM 32.0 °F - 24.8 °F 75% 30.09 in 10.0 mi Calm Calm - N/A   Clear
10:15 PM 33.8 °F - 26.6 °F 75% 30.10 in 10.0 mi Calm Calm - N/A   Clear
10:35 PM 32.0 °F - 26.6 °F 80% 30.10 in 10.0 mi Calm Calm - N/A   Clear
10:55 PM 30.2 °F - 26.6 °F 86% 30.10 in 10.0 mi Calm Calm - N/A   Clear
11:15 PM 28.4 °F - 24.8 °F 86% 30.11 in 10.0 mi Calm Calm - N/A   Clear
11:35 PM 28.4 °F - 24.8 °F 86% 30.11 in 10.0 mi Calm Calm - N/A   Clear
11:55 PM 28.4 °F - 24.8 °F 86% 30.11 in 10.0 mi Calm Calm - N/A   Clear